When you browse on this site, cookies collect data to enhance your experience and personalize the content and advertising you see.
Visit our Privacy Policy to learn more. By continuing to use the site, you agree to this use of cookies and data.
EN

Hourly Weather Muskogee

Today, 14 August, Friday

Time Temperature Precipitation Wind Pressure Humidity
00:00 +25°C° 1.1 mm 2 mps 744 mmHg 90%
01:00 +25°C° 0.9 mm 2 mps 743 mmHg 91%
02:00 +24°C° 0.9 mm 2 mps 743 mmHg 92%
03:00 +24°C° 0.9 mm 2 mps 743 mmHg 93%
04:00 +24°C° 0 mm 2 mps 743 mmHg 94%
05:00 +24°C° 0 mm 2 mps 743 mmHg 94%
06:00 +24°C° 0 mm 3 mps 743 mmHg 95%
07:00 +26°C° 0 mm 3 mps 743 mmHg 90%
08:00 +28°C° 0 mm 3 mps 743 mmHg 86%
09:00 +29°C° 0 mm 3 mps 743 mmHg 81%
10:00 +31°C° 0 mm 3 mps 743 mmHg 73%
11:00 +34°C° 0 mm 2 mps 743 mmHg 64%
12:00 +36°C° 0 mm 2 mps 743 mmHg 56%
13:00 +37°C° 0 mm 2 mps 743 mmHg 53%
14:00 +37°C° 0 mm 2 mps 742 mmHg 50%
15:00 +38°C° 0 mm 2 mps 742 mmHg 47%
16:00 +37°C° 0 mm 2 mps 742 mmHg 52%
17:00 +36°C° 0 mm 2 mps 742 mmHg 57%
18:00 +35°C° 0 mm 2 mps 742 mmHg 62%
19:00 +33°C° 0 mm 1 mps 742 mmHg 66%
20:00 +31°C° 0 mm 1 mps 742 mmHg 69%
21:00 +29°C° 0 mm 1 mps 742 mmHg 72%
22:00 +29°C° 0 mm 1 mps 743 mmHg 75%
23:00 +28°C° 0 mm 1 mps 743 mmHg 77%

Tomorrow, 15 August, Saturday

Time Temperature Precipitation Wind Pressure Humidity
00:00 +27°C° 0 mm 1 mps 743 mmHg 79%
01:00 +27°C° 0 mm 1 mps 743 mmHg 81%
02:00 +27°C° 0 mm 1 mps 743 mmHg 82%
03:00 +27°C° 0 mm 1 mps 743 mmHg 83%
04:00 +26°C° 0 mm 1 mps 743 mmHg 85%
05:00 +26°C° 0 mm 1 mps 744 mmHg 87%
06:00 +26°C° 0 mm 1 mps 744 mmHg 88%
07:00 +27°C° 0 mm 1 mps 744 mmHg 83%
08:00 +29°C° 0 mm 1 mps 745 mmHg 77%
09:00 +31°C° 0 mm 1 mps 745 mmHg 71%
10:00 +34°C° 0 mm 2 mps 745 mmHg 64%
11:00 +36°C° 0 mm 2 mps 745 mmHg 58%
12:00 +37°C° 0 mm 2 mps 745 mmHg 51%
13:00 +38°C° 0 mm 2 mps 744 mmHg 49%
14:00 +38°C° 0 mm 2 mps 744 mmHg 47%
15:00 +38°C° 0 mm 2 mps 744 mmHg 45%
16:00 +37°C° 0 mm 3 mps 744 mmHg 51%
17:00 +36°C° 0 mm 3 mps 744 mmHg 57%
18:00 +34°C° 0 mm 3 mps 744 mmHg 62%
19:00 +33°C° 0 mm 3 mps 744 mmHg 68%
20:00 +30°C° 0 mm 3 mps 744 mmHg 74%
21:00 +28°C° 0 mm 3 mps 745 mmHg 79%
22:00 +28°C° 0 mm 3 mps 745 mmHg 82%
23:00 +27°C° 0 mm 3 mps 745 mmHg 86%

Day after tomorrow, 16 August, Sunday

Time Temperature Precipitation Wind Pressure Humidity
00:00 +26°C° 0 mm 3 mps 746 mmHg 89%
01:00 +25°C° 0 mm 3 mps 746 mmHg 88%
02:00 +25°C° 0 mm 3 mps 746 mmHg 87%
03:00 +24°C° 0 mm 2 mps 746 mmHg 86%
04:00 +23°C° 0 mm 2 mps 746 mmHg 88%
05:00 +23°C° 0 mm 2 mps 746 mmHg 89%
06:00 +23°C° 0 mm 2 mps 746 mmHg 91%
07:00 +24°C° 0 mm 2 mps 746 mmHg 86%
08:00 +26°C° 0 mm 3 mps 747 mmHg 80%
09:00 +27°C° 0 mm 3 mps 747 mmHg 75%
10:00 +30°C° 0 mm 3 mps 747 mmHg 65%
11:00 +33°C° 0 mm 3 mps 747 mmHg 55%
12:00 +35°C° 0 mm 3 mps 747 mmHg 45%
13:00 +36°C° 0 mm 3 mps 746 mmHg 41%
14:00 +36°C° 0 mm 3 mps 746 mmHg 38%
15:00 +37°C° 0 mm 3 mps 746 mmHg 34%
16:00 +35°C° 0 mm 3 mps 746 mmHg 42%
17:00 +33°C° 0 mm 3 mps 745 mmHg 49%
18:00 +32°C° 0 mm 4 mps 745 mmHg 56%
19:00 +29°C° 0 mm 3 mps 745 mmHg 59%
20:00 +27°C° 0 mm 3 mps 746 mmHg 61%
21:00 +26°C° 0 mm 2 mps 746 mmHg 64%
22:00 +25°C° 0 mm 2 mps 747 mmHg 64%
23:00 +24°C° 0 mm 2 mps 747 mmHg 64%

17 August, Monday

Time Temperature Precipitation Wind Pressure Humidity
00:00 +24°C° 0 mm 2 mps 747 mmHg 64%
01:00 +24°C° 0 mm 2 mps 747 mmHg 64%
02:00 +23°C° 0 mm 2 mps 747 mmHg 64%
03:00 +23°C° 0 mm 2 mps 747 mmHg 64%
04:00 +21°C° 0 mm 2 mps 747 mmHg 67%
05:00 +22°C° 0 mm 1 mps 748 mmHg 71%
06:00 +22°C° 0 mm 1 mps 748 mmHg 74%
07:00 +24°C° 0 mm 1 mps 748 mmHg 72%
08:00 +26°C° 0 mm 1 mps 748 mmHg 70%
09:00 +28°C° 0 mm 1 mps 748 mmHg 68%
10:00 +30°C° 0 mm 1 mps 748 mmHg 62%
11:00 +32°C° 0 mm 1 mps 748 mmHg 57%
12:00 +34°C° 0 mm 1 mps 748 mmHg 51%
13:00 +35°C° 0 mm 2 mps 748 mmHg 49%
14:00 +35°C° 0 mm 2 mps 747 mmHg 47%
15:00 +35°C° 0 mm 3 mps 747 mmHg 45%
16:00 +34°C° 0 mm 3 mps 746 mmHg 50%
17:00 +33°C° 0 mm 3 mps 746 mmHg 55%
18:00 +30°C° 0 mm 3 mps 746 mmHg 60%
19:00 +29°C° 0 mm 3 mps 746 mmHg 65%
20:00 +27°C° 0 mm 3 mps 747 mmHg 69%
21:00 +26°C° 0 mm 3 mps 747 mmHg 74%
22:00 +25°C° 0 mm 3 mps 747 mmHg 76%
23:00 +24°C° 0 mm 3 mps 747 mmHg 78%

18 August, Tuesday

Time Temperature Precipitation Wind Pressure Humidity
00:00 +22°C° 0 mm 3 mps 747 mmHg 80%
01:00 +23°C° 0 mm 2 mps 747 mmHg 83%
02:00 +21°C° 0 mm 2 mps 747 mmHg 86%
03:00 +21°C° 0 mm 2 mps 746 mmHg 89%
04:00 +20°C° 0 mm 2 mps 747 mmHg 91%
05:00 +20°C° 0 mm 2 mps 747 mmHg 92%
06:00 +19°C° 0 mm 2 mps 747 mmHg 94%
07:00 +21°C° 0 mm 3 mps 747 mmHg 87%
08:00 +24°C° 0 mm 3 mps 748 mmHg 80%
09:00 +26°C° 0 mm 3 mps 748 mmHg 72%
10:00 +28°C° 0 mm 3 mps 748 mmHg 64%
11:00 +30°C° 0 mm 3 mps 747 mmHg 56%
12:00 +31°C° 0 mm 3 mps 747 mmHg 48%
13:00 +33°C° 0 mm 3 mps 746 mmHg 46%
14:00 +33°C° 0 mm 3 mps 746 mmHg 44%
15:00 +33°C° 0 mm 3 mps 745 mmHg 42%
16:00 +31°C° 0 mm 3 mps 745 mmHg 48%
17:00 +30°C° 0 mm 3 mps 745 mmHg 55%
18:00 +28°C° 0 mm 3 mps 744 mmHg 62%
19:00 +27°C° 0 mm 3 mps 744 mmHg 66%
20:00 +25°C° 0 mm 3 mps 745 mmHg 70%
21:00 +24°C° 0 mm 3 mps 745 mmHg 74%
22:00 +23°C° 0 mm 2 mps 745 mmHg 76%
23:00 +21°C° 0 mm 2 mps 745 mmHg 78%

19 August, Wednesday

Time Temperature Precipitation Wind Pressure Humidity
00:00 +20°C° 0 mm 2 mps 745 mmHg 80%
01:00 +20°C° 0 mm 2 mps 745 mmHg 81%
02:00 +19°C° 0 mm 2 mps 745 mmHg 83%
03:00 +19°C° 0 mm 2 mps 744 mmHg 84%
04:00 +20°C° 0 mm 1 mps 744 mmHg 85%
05:00 +20°C° 0 mm 1 mps 744 mmHg 85%
06:00 +20°C° 0 mm 1 mps 745 mmHg 85%
07:00 +22°C° 0 mm 1 mps 745 mmHg 79%
08:00 +24°C° 0 mm 1 mps 745 mmHg 73%
09:00 +26°C° 0 mm 1 mps 745 mmHg 67%
10:00 +28°C° 0 mm 1 mps 745 mmHg 60%
11:00 +31°C° 0 mm 1 mps 745 mmHg 53%
12:00 +33°C° 0 mm 1 mps 745 mmHg 45%
13:00 +33°C° 0 mm 1 mps 744 mmHg 43%
14:00 +33°C° 0 mm 1 mps 744 mmHg 40%
15:00 +34°C° 0 mm 1 mps 743 mmHg 37%
16:00 +33°C° 0 mm 1 mps 743 mmHg 43%
17:00 +32°C° 0 mm 1 mps 743 mmHg 49%
18:00 +30°C° 0 mm 1 mps 742 mmHg 55%
19:00 +29°C° 0 mm 1 mps 743 mmHg 59%
20:00 +27°C° 0 mm 1 mps 743 mmHg 63%
21:00 +25°C° 0 mm 1 mps 743 mmHg 67%
22:00 +25°C° 0 mm 1 mps 743 mmHg 69%
23:00 +24°C° 0 mm 2 mps 744 mmHg 71%
Show more